This demonstration page uses our WeatherBlox Daily Observations layout. Learn more.

36.17497, -115.13722

Hourly Observations for April 30, 2015

Temp ( °F °C ) Dew Point ( °F °C ) Humidity (%) Winds ( mph kmh ) Pressure ( in mb ) Visibility ( mi km ) Precip ( " mm )
12:53 am 00:53 Clear 75 23.9 26 -3.3 16 16 NW 3 6 29.8 1009 10 16.0934 0 0
1:53 am 01:53 Clear 71 21.7 28 -2.2 20 20 NNW 5 7 29.81 1010 10 16.0934 0 0
2:53 am 02:53 Clear 69 20.6 31 -0.6 24 24 Calm 29.81 1010 10 16.0934 0 0
3:53 am 03:53 Clear 68 20 31 -0.6 25 25 NW 3 6 29.82 1010 10 16.0934 0 0
4:53 am 04:53 Clear 66 18.9 29 -1.7 25 25 NNW 3 6 29.82 1010 10 16.0934 0 0
5:53 am 05:53 Sunny 67 19.4 25 -3.9 20 20 NW 8 13 29.84 1010 10 16.0934 0 0
6:53 am 06:53 Sunny 69 20.6 26 -3.3 20 20 N 6 9 29.86 1011 10 16.0934 0 0
7:53 am 07:53 Sunny 76 24.4 26 -3.3 16 16 N 7 11 29.87 1012 10 16.0934 0 0
8:53 am 08:53 Sunny 78 25.6 26 -3.3 15 15 SE 5 7 29.88 1012 10 16.0934 0 0
9:53 am 09:53 Sunny 81 27.2 25 -3.9 13 13 Calm 29.88 1012 10 16.0934 0 0
10:53 am 10:53 Sunny 85 29.4 26 -3.3 12 12 ESE 6 9 29.88 1012 10 16.0934 0 0
11:53 am 11:53 Sunny 89 31.7 24 -4.4 9 9 SSE 12 19 29.86 1011 10 16.0934 0 0
12:53 pm 12:53 Sunny 90 32.2 20 -6.7 8 8 VRB 5 7 29.83 1010 10 16.0934 0 0
1:53 pm 13:53 Sunny 91 32.8 17 -8.3 6 6 VRB 3 6 29.82 1010 10 16.0934 0 0
2:53 pm 14:53 Sunny 93 33.9 19 -7.2 7 7 SSE 8 13 29.8 1009 10 16.0934 0 0
3:53 pm 15:53 Sunny 93 33.9 18 -7.8 6 6 SW 10 17 29.78 1008 10 16.0934 0 0
4:53 pm 16:53 Sunny 92 33.3 19 -7.2 7 7 undefined N/A 29.76 1008 10 16.0934 0 0
5:53 pm 17:53 Sunny 91 32.8 20 -6.7 7 7 S 6 9 29.76 1008 10 16.0934 0 0
6:53 pm 18:53 Sunny 90 32.2 22 -5.6 8 8 Calm 29.75 1008 10 16.0934 0 0
7:53 pm 19:53 Clear 88 31.1 24 -4.4 10 10 SSW 5 7 29.76 1008 10 16.0934 0 0
8:53 pm 20:53 Clear 85 29.4 24 -4.4 11 11 E 6 9 29.78 1008 10 16.0934 0 0
9:53 pm 21:53 Clear 84 28.9 22 -5.6 10 10 NNW 7 11 29.79 1009 10 16.0934 0 0
10:53 pm 22:53 Clear 81 27.2 23 -5 12 12 NW 12 19 29.8 1009 10 16.0934 0 0
11:53 pm 23:53 Clear 78 25.6 24 -4.4 13 13 N 9 15 29.8 1009 10 16.0934 0 0

Powered by AerisWeather